Left ArrowRight Arrow

34.02893, -84.19858

Hourly Observations for June 21, 2024

Temp ( °F °C ) Dew Point ( °F °C ) Humidity (%) Winds ( mph kmh ) Pressure ( in mb ) Visibility ( mi km ) Precip ( " mm )
12:53 am 00:53 Clear 70 21.1 62 16.7 76 76 Calm 30.20 1023 10 16 0.00 0.00
1:53 am 01:53 Clear 70 21.1 62 16.7 76 76 Calm 30.19 1022 10 16 0.00 0.00
2:53 am 02:53 Clear 68 20 62 16.7 81 81 Calm 30.19 1023 10 16 0.00 0.00
3:53 am 03:53 Clear 66 18.9 61 16.1 84 84 N 5 7 30.19 1022 10 16 0.00 0.00
4:53 am 04:53 Clear 67 19.4 62 16.7 84 84 Calm 30.19 1022 10 16 0.00 0.00
5:53 am 05:53 Clear 66 18.9 62 16.7 87 87 Calm 30.21 1023 10 16 0.00 0.00
6:53 am 06:53 Sunny 68 20 62 16.7 81 81 undefined N/A 30.21 1023 10 16 0.00 0.00
7:53 am 07:53 Sunny 73 22.8 63 17.2 71 71 undefined N/A 30.22 1023 10 16 0.00 0.00
8:53 am 08:53 Sunny 75 23.9 64 17.8 69 69 Calm 30.22 1023 10 16 0.00 0.00
9:53 am 09:53 Sunny 80 26.7 65 18.3 60 60 Calm 30.22 1023 10 16 0.00 0.00
10:53 am 10:53 Sunny 84 28.9 64 17.8 51 51 N 5 7 30.21 1023 10 16 0.00 0.00
11:53 am 11:53 Mostly Cloudy 85 29.4 62 16.7 46 46 VRB 3 6 30.21 1023 10 16 0.00 0.00
12:53 pm 12:53 Partly Cloudy 88 31.1 62 16.7 42 42 undefined N/A 30.19 1022 10 16 0.00 0.00
1:53 pm 13:53 Partly Cloudy 87 30.6 61 16.1 42 42 VRB 7 11 30.16 1022 10 16 0.00 0.00
2:53 pm 14:53 Mostly Sunny 88 31.1 61 16.1 41 41 ENE 5 7 30.14 1021 10 16 0.00 0.00
3:53 pm 15:53 Mostly Sunny 92 33.3 61 16.1 36 36 Calm 30.12 1020 10 16 0.00 0.00
4:53 pm 16:53 Sunny 91 32.8 60 15.6 36 36 VRB 7 11 30.11 1020 10 16 0.00 0.00
5:53 pm 17:53 Sunny 91 32.8 60 15.6 36 36 undefined N/A 30.09 1019 10 16 0.00 0.00
6:53 pm 18:53 Sunny 89 31.7 59 15 36 36 VRB 5 7 30.08 1019 10 16 0.00 0.00
7:53 pm 19:53 Sunny 88 31.1 61 16.1 41 41 Calm 30.07 1018 10 16 0.00 0.00
8:53 pm 20:53 Clear 83 28.3 62 16.7 49 49 Calm 30.08 1019 10 16 0.00 0.00
9:53 pm 21:53 Clear 80 26.7 62 16.7 54 54 Calm 30.09 1019 10 16 0.00 0.00
10:53 pm 22:53 Clear 76 24.4 63 17.2 64 64 Calm 30.11 1020 10 16 0.00 0.00
11:53 pm 23:53 Clear 74 23.3 64 17.8 71 71 Calm 30.11 1020 10 16 0.00 0.00

Powered by Vaisala Xweather